Location: Colle San Luigi
(43.5500°N, 13.4167°E)
Time: 11:45:16
(UTC+00:00)

Cosmos 2344 - Pass Details

Date: 09 April 2020
Orbit: 1251 x 2991 km, 63.3° (Epoch: 26 May)

Event Time Altitude Azimuth Distance (km) Brightness Sun altitude
Rises 22:25:39 0° 321° (NW) 4,747 7.3 -37.6°
Reaches altitude 10° 22:28:20 10° 319° (NW) 3,918 6.7 -37.7°
Maximum altitude 22:38:17 68° 240° (WSW) 2,191 4.5 -38.0°
Enters shadow 22:38:42 68° 229° (SW) 2,213 4.5 -38.0°
